www.pogodaiklimat.ru

Погода и климат >> Архив погоды >> Россия >> Краснодарский край >> Славянск-на-Кубани


ПОГОДА в Славянске-на-Кубани

  • Прогноз погоды в Славянске-на-Кубани
  • Монитор погоды в Славянске-на-Кубани

АРХИВ ПОГОДЫ в Славянске-на-Кубани

Время (UTC), дата Ветер
(напр.,м/с)
 
Видим.   Явления Облачность Т
(С)
Тd
(С)
f
(%)
Тe
(С)
Тes
(С)
Комфортность P
(гПа)
Po
(гПа)
Тmin
(С)
Tmax
(С)
R
(мм)
R24
(мм)
S
(см)
09 12.05 С 1 10 км {ливн. осадки} 10/4 600 м
[Sc diur, vesp Ac As]
+15.0 +12.6 86 +15 +19 1017.8 1016.7
12 12.05 штиль 0 10 км {ливн. осадки} 10/8 600 м
[Sc diur, vesp Ac und]
+18.0 +13.9 77 +18 +19 1018.8 1017.7
15 12.05 З 1 10 км {ливн. осадки} 9/0
[Ac trans]
+17.6 +13.5 77 +19 +20 1019.2 1018.1 +18.8 1
18 12.05 штиль 0 10 км {ливн. осадки} 10/0
[Ac und]
+14.9 +13.4 91 +15 +15 1020.1 1019.0
21 12.05 З 1 4000 м слаб. ливневой дождь 10/10 600 м
[Cb cap]
+15.0 +13.9 93 +15 +15 1020.8 1019.7
00 13.05 штиль 0 4000 м дымка {ливн. осадки} 10/0
[Ac und]
+14.6 +13.6 94 +14 +14 1020.6 1019.5
03 13.05 штиль 0 1000 м дымка 10/0
[Ac trans Ci]
+14.4 +13.4 94 +14 +14 1020.1 1019.0 +13.7 4
06 13.05 Ю 1 10 км 8/8 600 м
[Cu med, cong]
+16.7 +13.4 81 +18 +20 1020.6 1019.5
09 13.05 ЮЗ 1 10 км 9/9 600 м
[Cu med, cong]
+19.0 +12.3 65 +21 +23 комфорт 1020.7 1019.6
12 13.05 З 2 10 км в посл. час ливневой дождь 10/8 300 м
[Cb calv Ac trans]
+17.0 +14.1 83 +17 +18 1020.5 1019.4
15 13.05 З 2 10 км 8/3 600 м
[Cu med, cong Ac trans]
+18.4 +13.1 71 +19 +20 1019.8 1018.7 +19.8 3
18 13.05 З 2 10 км 8/0
[Ac trans]
+14.7 +12.0 84 +14 +14 1020.6 1019.5
21 13.05 штиль 0 4000 м дымка 3/0
[Ci fib]
+12.0 +10.7 92 +11 +11 1020.1 1019.0
00 14.05 штиль 0 4000 м дымка ясно +10.8 +9.8 94 +10 +10 1019.8 1018.7
03 14.05 ЮЗ 1 1000 м дымка ясно +10.9 +10.0 94 +10 +11 1019.7 1018.6 +10.3
06 14.05 З 2 10 км 3/0
[Ci]
+17.3 +12.9 75 +18 +26 1019.8 1018.7
09 14.05 З 3 10 км 6/0
[Ci fib]
+21.5 +12.2 55 +24 +37 комфорт 1019.0 1017.9
12 14.05 З 3 10 км 6/3 600 м
[Cu med, cong Ci fib]
+22.6 +13.2 55 +26 +32 жарко 1018.8 1017.7
15 14.05 З 3 10 км 3/0
[Ci fib]
+21.3 +11.7 54 +23 +25 комфорт 1018.7 1017.6 +22.7
18 14.05 ЮЗ 1 10 км 10/0
[Ac trans Ci fib]
+15.5 +12.7 83 +16 +16 1019.3 1018.2
21 14.05 ЮЗ 1 4000 м дымка 8/0
[Ac trans Ci fib]
+12.5 +11.5 94 +12 +12 1018.9 1017.8
00 15.05 штиль 0 4000 м дымка ясно +10.2 +9.3 94 +9 +9 1018.3 1017.2
03 15.05 штиль 0 10 км 10/0
[Ci fib]
+10.9 +10.1 95 +10 +11 1018.3 1017.2 +9.5
06 15.05 З 1 10 км 10/0
[Ci]
+20.2 +13.7 66 +23 +32 комфорт 1019.0 1017.9
09 15.05 В 2 10 км 6/0
[Ci]
+23.7 +13.9 54 +26 +42 жарко 1018.3 1017.2
15 15.05 СВ 2 10 км 10/0
[Ci]
+25.8 +13.0 45 +28 +29 жарко 1016.1 1015.0 +26.2
18 15.05 СВ 1 10 км 4/0
[Ci fib]
+20.3 +15.4 73 +24 +24 комфорт 1016.6 1015.5
21 15.05 СВ 1 10 км 6/0
[Ci]
+18.3 +14.3 77 +20 +20 1015.6 1014.5
00 16.05 В 2 10 км 1/0
[Ci fib]
+17.5 +13.6 78 +18 +18 1014.6 1013.6
03 16.05 В 2 10 км 3/0
[Ci fib]
+16.5 +12.6 78 +17 +17 1014.3 1013.2 +16.0
06 16.05 В 3 10 км ясно +23.0 +14.1 57 +26 +34 жарко 1014.4 1013.4
09 16.05 В 3 10 км 3/0
[Ci fib]
+26.8 +13.0 42 +28 +43 жарко 1013.1 1012.1
12 16.05 В 4 10 км 3/0
[Ci fib]
+28.4 +12.4 37 +30 +38 жарко 1011.8 1010.7
15 16.05 В 2 10 км 3/0
[Ci fib]
+28.0 +14.3 43 +30 +32 жарко 1010.8 1009.7 +28.8
18 16.05 СВ 1 10 км 3/0
[Ci fib]
+22.4 +15.1 63 +26 +26 жарко 1011.2 1010.1
21 16.05 СВ 1 10 км 4/0
[Ci fib]
+21.0 +15.2 69 +25 +25 комфорт 1011.0 1010.0
00 17.05 СВ 1 10 км 10/0
[Ac trans Ci]
+19.5 +15.0 75 +22 +22 комфорт 1010.5 1009.4
03 17.05 СВ 1 10 км 10/0
[Cc]
+18.2 +15.2 83 +20 +20 1010.6 1009.5 +16.8
06 17.05 В 2 10 км 8/0
[Ci fib]
+23.1 +15.6 63 +27 +35 душно 1010.4 1009.4
09 17.05 ЮВ 1 10 км 8/0
[Ci fib]
+26.5 +16.3 53 +30 +48 душно 1010.5 1009.5
12 17.05 В 1 10 км 10/3 600 м
[Cu hum Ci fib]
+27.9 +17.1 52 +32 +40 душно 1009.9 1008.9
15 17.05 В 1 10 км 3/0
[Ci fib]
+28.3 +16.3 48 +32 +34 душно 1008.8 1007.8 +28.8
18 17.05 В 1 10 км ясно +19.1 +15.7 81 +22 +22 комфорт 1008.4 1007.3
21 17.05 В 1 10 км ясно +20.0 +12.7 63 +23 +23 комфорт 1008.0 1006.9
00 18.05 СВ 1 10 км 6/0
[Ac trans Ci fib]
+17.9 +12.4 70 +19 +19 1007.0 1005.9
03 18.05 В 1 10 км 10/0
[Ac trans Ci fib]
+17.5 +13.0 75 +19 +19 1007.0 1005.9 +17.2
06 18.05 В 2 10 км 10/0
[Ac und]
+20.4 +14.5 69 +24 +26 комфорт 1006.7 1005.6
09 18.05 В 2 10 км 10/0
[Ac As Ci fib]
+23.3 +15.2 60 +27 +37 душно 1007.1 1006.0
12 18.05 В 4 10 км 8/0
[Ci fib]
+28.2 +14.8 44 +31 +38 душно 1005.6 1004.6
15 18.05 В 3 10 км 3/0
[Ci fib]
+27.5 +15.1 47 +30 +32 жарко 1004.4 1003.4 +28.6
18 18.05 В 2 10 км 10/0
[Ac trans Ci]
+22.7 +15.0 62 +27 +27 душно 1005.6 1004.5
21 18.05 СВ 1 10 км 10/0
[Ci fib]
+19.9 +14.2 70 +23 +23 комфорт 1005.1 1004.1
00 19.05 В 2 10 км 10/0
[Ac und]
+18.5 +12.3 67 +20 +20 1004.7 1003.7
03 19.05 СВ 2 10 км 10/3 600 м
[Cu med, cong Ac As Ci fib]
+17.6 +12.4 72 +18 +18 1005.8 1004.7 +17.5

 

Местоположение метеостанции Славянск-на-Кубани (Краснодарский край, Россия): широта 45.28 долгота 38.12 высота над уровнем моря 9 м.

В архиве по умолчанию представлена погода в Славянске-на-Кубани за последнюю неделю. Архивные данные за месяц целиком и за предыдущие месяцы, начиная с января 2011 года, Вы можете получить, выбрав интересующий диапазон дат из раскрывающегося списка и нажав кнопку "Ввод!".


*Определитесь, кто Вы:
робот инопланетянин человек

Внимание! Время в таблицах - всемирное. Для получения местного времени необходимо прибавить поправку, которая равна 3 ч.

Смотрите также архив погоды в соседних городах и на ближайших метеорологических станциях:

Погода в Крымске (Краснодарский край, Россия) (41 км)
Погода в Темрюке (Краснодарский край, Россия) (58 км)
Погода в Новороссийске (Краснодарский край, Россия) (66 км)
Погода в Тимашевске (Краснодарский край, Россия) (74 км)
Погода в Краснодаре (Краснодарский край, Россия) (76 км)
Погода в Геленджике (Краснодарский край, Россия) (79 км)
Погода в Анапе (Краснодарский край, Россия) (80 км)
Погода в Приморско-Ахтарске (Краснодарский край, Россия) (83 км)
Погода в Горячем Ключе (Краснодарский край, Россия) (106 км)
Погода в Кореновске (Краснодарский край, Россия) (108 км)

Пояснения к столбцам:

Ветер - указаны скорость ветра в м/с - средняя за 10 мин, порывы в срок и между сроками (в фигурных скобках) и направление, откуда дует ветер: С - северный, СВ - северо-восточный, В - восточный, ЮВ - юго-восточный, Ю - южный, ЮЗ - юго-западный, З - западный, СЗ - северо-западный.
Видимость - горизонтальная дальность видимости в метрах или километрах. При видимости от 1 до 10 км при отсутствии осадков обычно наблюдается дымка, при ухудшении видимости до 1 км и менее - туман. В сухую погоду видимость может ухудшаться дымом, пылью или мглою.
Явления - указаны атмосферные явления, наблюдавшиеся в срок или в последний час перед сроком; фигурными скобками обозначены явления, наблюдавшиеся между сроками (за 1-3 часа до срока); квадратными скобками обозначены град или гололедные отложения с указанием их диаметра в мм.
Облачность - указаны через наклонную черту общая и нижняя облачность в баллах и высота нижней границы облаков в метрах; квадратными скобками обозначены формы облаков: Ci - перистые, Cs - перисто-слоистые, Cc - перисто-кучевые, Ac - высококучевые, As - высокослоистые, Sc - слоисто-кучевые, Ns - слоисто-дождевые, Cu - кучевые, Cb - кучево-дождевые. Подробнее классификацию облаков см. в Атласе облаков (PDF).
T - Температура воздуха - температура, измеренная на высоте 2 м над землей.
Td - Температура точки росы - температура, при понижении до которой содержащийся в воздухе водяной пар достигнет насыщения.
f - Относительная влажность воздуха - влажноcть воздуха, измеренная на высоте 2 м над землей.
Te - Эффективная температура - температура, которую ощущает одетый по сезону человек в тени. Характеристика душности погоды. При расчете учитывается влияние влажности воздуха и скорости ветра на теплоощущения человека.
Tes - Эффективная температура на солнце - температура, которую ощущает человек, с поправкой на солнечный нагрев. Характеристика знойности погоды. Зависит от высоты солнца над горизонтом, облачности и скорости ветра. Ночью, в пасмурную погоду, а также при ветре 12 м/с и более поправка равна нулю.
P - Атмосферное давление - приведенное к уровню моря атмосферное давление.
Po - Атмосферное давление - измеренное на уровне метеостанции атмосферное давление.
Tmin - Минимальная температура - минимум температуры воздуха на высоте 2 м над землей.
Tmax - Максимальная температура - максимум температуры воздуха на высоте 2 м над землей.
R - Количество осадков - Количество выпавших осадков за период времени, мм. При наведении курсора мыши на число - период времени, за который выпало указанное количество осадков.
R24 - Количество осадков - Количество выпавших осадков за 24 часа, мм.
S - Снежный покров - Высота снежного покрова, см. При наведении курсора мыши на число - состояние снежного покрова и степень покрытия местности в баллах.